www.pogodaiklimat.ru

Погода и климат >> Архив погоды >> Оман >> Сиб


ПОГОДА в Сибе

  • Прогноз погоды в Сибе
  • Монитор погоды в Сибе

АРХИВ ПОГОДЫ в Сибе

Время (UTC), дата Ветер
(напр.,м/с)
 
Видим.   Явления Облачность Т
(С)
Тd
(С)
f
(%)
Тe
(С)
Тes
(С)
Комфортность P
(гПа)
Po
(гПа)
Тmin
(С)
Tmax
(С)
R
(мм)
R24
(мм)
S
(см)
09 12.08 СЗ 2 7000 м мгла 8/0
[Ac trans Ci fib]
+35.3 +25.1 56 +49 +64 опасность
перегрева
996.2 994.5
12 12.08 СВ 6 5000 м мгла 9/0
[Ci fib]
+29.8 +27.1 85 +47 +49 опасность
перегрева
996.0 994.3
15 12.08 Ю 4 5000 м мгла 10/3 750 м
[Sc Ac trans]
+31.4 +25.9 73 +47 +47 опасность
перегрева
997.0 995.3
18 12.08 В 3 6000 м 8/8 600 м
[]
+29.4 +26.9 86 +46 +46 опасность
перегрева
998.3 996.6 +35.6
21 12.08 СВ 2 6000 м мгла 9/3 750 м
[Sc Ac trans]
+29.8 +27.1 85 +47 +47 опасность
перегрева
997.0 995.3
00 13.08 С 5 7000 м мгла 8/0
[Ac trans]
+30.3 +27.8 87 +50 +50 опасность
перегрева
997.7 996.0
03 13.08 СЗ 1 6000 м пыль 9/0
[Ac trans]
+31.3 +27.6 81 +51 +52 опасность
перегрева
999.7 998.2
06 13.08 СВ 2 8000 м мгла 4/0
[Ci fib]
+33.7 +27.1 68 +52 +68 опасность
перегрева
1000.1 998.4 +29.2
09 13.08 СВ 5 8000 м 8/0
[Ac trans]
+32.6 +27.3 74 +51 +58 опасность
перегрева
999.0 997.3
12 13.08 В 4 9000 м мгла 10/0
[As trans]
+32.0 +26.9 74 +49 +51 опасность
перегрева
998.2 996.5
15 13.08 СЗ 1 8000 м мгла 10/0
[Ac trans Ci fib]
+31.7 +26.6 74 +48 +48 опасность
перегрева
998.7 997.0
18 13.08 В 3 10 км 4/0
[Ci fib]
+30.1 +26.6 82 +47 +47 опасность
перегрева
999.5 997.8 +34.3
21 13.08 С 2 10 км 4/0
[Ci fib]
+30.8 +27.2 81 +49 +49 опасность
перегрева
999.0 997.3
00 14.08 СЗ 2 10 км 3/0
[Ci fib]
+30.7 +26.5 78 +47 +47 опасность
перегрева
998.7 997.0
03 14.08 СЗ 2 9000 м мгла 3/0
[]
+31.1 +27.9 83 +51 +53 опасность
перегрева
1000.6 998.9
06 14.08 С 2-8
{9}
9000 м мгла ясно +33.6 +25.8 64 +49 +65 опасность
перегрева
1001.6 999.9 +29.7 205
09 14.08 СВ 5 9000 м мгла 3 балла +32.6 +26.3 70 +49 +57 опасность
перегрева
1000.5 998.8
12 14.08 СВ 4 10 км ?/? +32.8 +26.0 68 +49 +49 опасность
перегрева
999.0 997.3
15 14.08 С 1 10 км ?/? +34.2 +24.1 56 +46 +46 опасность
перегрева
998.8 997.1
18 14.08 В 3 10 км 4/0
[Ci fib]
+31.5 +25.7 71 +46 +46 опасность
перегрева
1000.5 998.8 +35.1
21 14.08 СВ 2 10 км ясно +31.4 +26.1 74 +47 +47 опасность
перегрева
999.7 998.0
00 15.08 В 3 10 км ясно +31.1 +25.9 74 +46 +46 опасность
перегрева
999.8 998.1
03 15.08 З 3 10 км ?/? +30.9 +27.1 80 +49 +49 опасность
перегрева
1001.5 999.8
06 15.08 СЗ 3 10 км ясно +31.9 +27.3 77 +51 +64 опасность
перегрева
1002.7 1001.0 +29.8
09 15.08 СВ 5 10 км ясно +32.2 +27.1 75 +51 +61 опасность
перегрева
1001.6 999.9
12 15.08 СВ 4 10 км ясно +33.4 +26.1 66 +50 +54 опасность
перегрева
999.4 997.7
15 15.08 СВ 1 9000 м мгла ясно +33.5 +24.0 58 +45 +45 опасность
перегрева
999.5 997.8
18 15.08 С 2 10 км ясно +31.5 +25.3 70 +46 +46 опасность
перегрева
1000.6 998.9 +35.0
21 15.08 нст 2 10 км ?/? +29.3 +27.2 88 +46 +46 опасность
перегрева
1001.0 999.3
00 16.08 С 1 10 км ясно +28.8 +26.7 88 +45 +45 опасность
перегрева
1000.3 998.6
03 16.08 З 2 >70 км мгла ясно +29.7 +26.8 84 +46 +48 опасность
перегрева
1001.0 999.3
06 16.08 С 4 8000 м мгла ясно +33.7 +25.9 64 +49 +60 опасность
перегрева
1001.9 1000.2 +28.3
09 16.08 С 3 10 км 10/10 300 м
[]
+35.9 +20.5 41 +42 +42 опасность
перегрева
1000.6 999.0
12 16.08 В 5 10 км ?/? +35.8 +22.3 46 +45 +45 опасность
перегрева
998.2 996.6
15 16.08 В 2 10 км ?/? +32.3 +25.0 65 +46 +46 опасность
перегрева
998.3 996.6
18 16.08 С 2 10 км ясно +32.6 +19.7 47 +39 +39 очень
душно
998.4 996.7 +36.6
21 16.08 нст 2 10 км ясно +29.8 +23.9 71 +41 +41 опасность
перегрева
998.4 996.7
00 17.08 С 1 10 км ?/? +28.6 +25.9 85 +43 +43 опасность
перегрева
997.7 996.0
03 17.08 З 1 8000 м мгла ясно +29.7 +25.5 78 +44 +46 опасность
перегрева
998.6 996.9
06 17.08 С 5 10 км ясно +34.4 +27.3 67 +53 +62 опасность
перегрева
1000.0 998.3 +27.9
09 17.08 СВ 6 10 км ясно +33.4 +25.6 64 +48 +56 опасность
перегрева
999.1 997.3
12 17.08 СВ 6 8000 м мгла ясно +32.4 +26.6 72 +50 +52 опасность
перегрева
997.2 995.5
15 17.08 В 4 8000 м мгла ясно +30.0 +27.5 86 +48 +48 опасность
перегрева
997.2 995.5
18 17.08 З 2 10 км ?/? +30.0 +26.5 82 +46 +46 опасность
перегрева
998.3 996.6 +37.0
21 17.08 СВ 3 10 км ?/? +30.5 +25.2 73 +44 +44 опасность
перегрева
998.2 996.5
00 18.08 нст 1 7000 м мгла ясно +28.7 +26.8 89 +45 +45 опасность
перегрева
999.3 997.6
03 18.08 штиль 0 7000 м мгла ясно +29.0 +27.3 91 +47 +49 опасность
перегрева
1001.3 999.6
06 18.08 СВ 4 10 км ясно +31.2 +27.0 78 +49 +59 опасность
перегрева
1002.7 1001.0 +28.4
09 18.08 СВ 8 10 км ясно +31.4 +25.6 71 +46 +50 опасность
перегрева
1002.3 1000.6
12 18.08 СВ 7 10 км ясно +31.5 +25.7 71 +46 +48 опасность
перегрева
1000.6 998.9
15 18.08 В 3 10 км 3/0
[As trans Ci fib]
+28.8 +25.9 84 +43 +43 опасность
перегрева
1000.9 999.2
18 18.08 З 2 10 км ясно +29.0 +25.5 81 +43 +43 опасность
перегрева
1002.5 1000.8 +32.4
21 18.08 В 1 10 км ясно +28.5 +25.4 83 +42 +42 опасность
перегрева
1002.2 1000.5
00 19.08 СВ 4 10 км ясно +27.8 +25.3 86 +40 +40 очень
душно
1002.2 1000.5
03 19.08 З 2 10 км ясно +29.2 +24.4 75 +41 +43 опасность
перегрева
1004.4 1002.7
06 19.08 С 3 10 км ясно +30.7 +24.7 70 +43 +56 опасность
перегрева
1005.8 1004.1 +26.9

 

Местоположение метеостанции Сиб (Оман): широта 23.58 долгота 58.28 высота над уровнем моря 15 м.

В архиве по умолчанию представлена погода в Сибе за последнюю неделю. Архивные данные за месяц целиком и за предыдущие месяцы, начиная с января 2011 года, Вы можете получить, выбрав интересующий диапазон дат из раскрывающегося списка и нажав кнопку "Ввод!".


*Определитесь, кто Вы:
робот инопланетянин человек

Внимание! Время в таблицах - всемирное. Для получения местного времени необходимо прибавить поправку, которая равна 4 ч.

Смотрите также архив погоды в соседних городах и на ближайших метеорологических станциях:

Погода в Аль Амарат (Оман) (22 км)
Погода в Порту Sultan Qaboos (Оман) (30 км)
Погода в Самаиле (Оман) (47 км)
Погода в Саике (Оман) (87 км)
Погода в Рустаке (Оман) (90 км)
Погода в Ибре (Оман) (97 км)
Погода в Эс-Сувейке (Оман) (106 км)
Погода на Эш-Шам (Оман) (110 км)
Погода в Назве (Оман) (112 км)
Погода в Аль Мудайби (Оман) (120 км)

Пояснения к столбцам:

Ветер - указаны скорость ветра в м/с - средняя за 10 мин, порывы в срок и между сроками (в фигурных скобках) и направление, откуда дует ветер: С - северный, СВ - северо-восточный, В - восточный, ЮВ - юго-восточный, Ю - южный, ЮЗ - юго-западный, З - западный, СЗ - северо-западный.
Видимость - горизонтальная дальность видимости в метрах или километрах. При видимости от 1 до 10 км при отсутствии осадков обычно наблюдается дымка, при ухудшении видимости до 1 км и менее - туман. В сухую погоду видимость может ухудшаться дымом, пылью или мглою.
Явления - указаны атмосферные явления, наблюдавшиеся в срок или в последний час перед сроком; фигурными скобками обозначены явления, наблюдавшиеся между сроками (за 1-3 часа до срока); квадратными скобками обозначены град или гололедные отложения с указанием их диаметра в мм.
Облачность - указаны через наклонную черту общая и нижняя облачность в баллах и высота нижней границы облаков в метрах; квадратными скобками обозначены формы облаков: Ci - перистые, Cs - перисто-слоистые, Cc - перисто-кучевые, Ac - высококучевые, As - высокослоистые, Sc - слоисто-кучевые, Ns - слоисто-дождевые, Cu - кучевые, Cb - кучево-дождевые. Подробнее классификацию облаков см. в Атласе облаков (PDF).
T - Температура воздуха - температура, измеренная на высоте 2 м над землей.
Td - Температура точки росы - температура, при понижении до которой содержащийся в воздухе водяной пар достигнет насыщения.
f - Относительная влажность воздуха - влажноcть воздуха, измеренная на высоте 2 м над землей.
Te - Эффективная температура - температура, которую ощущает одетый по сезону человек в тени. Характеристика душности погоды. При расчете учитывается влияние влажности воздуха и скорости ветра на теплоощущения человека.
Tes - Эффективная температура на солнце - температура, которую ощущает человек, с поправкой на солнечный нагрев. Характеристика знойности погоды. Зависит от высоты солнца над горизонтом, облачности и скорости ветра. Ночью, в пасмурную погоду, а также при ветре 12 м/с и более поправка равна нулю.
P - Атмосферное давление - приведенное к уровню моря атмосферное давление.
Po - Атмосферное давление - измеренное на уровне метеостанции атмосферное давление.
Tmin - Минимальная температура - минимум температуры воздуха на высоте 2 м над землей.
Tmax - Максимальная температура - максимум температуры воздуха на высоте 2 м над землей.
R - Количество осадков - Количество выпавших осадков за период времени, мм. При наведении курсора мыши на число - период времени, за который выпало указанное количество осадков.
R24 - Количество осадков - Количество выпавших осадков за 24 часа, мм.
S - Снежный покров - Высота снежного покрова, см. При наведении курсора мыши на число - состояние снежного покрова и степень покрытия местности в баллах.